Time,TemperatureF,DewpointF,PressureIn,WindDirection,WindDirectionDegrees,WindSpeedMPH,WindSpeedGustMPH,Humidity,HourlyPrecipIn,Conditions,Clouds,dailyrainin,SoftwareType,DateUTC
2013-09-22 00:00:00,61.0,61.0,27.63,SSE,157,0.0,3.0,100,0.00,,,0.00,Rainwise IP-100,2013-09-22 04:00:00,
2013-09-22 00:01:00,61.0,61.0,27.63,SSE,157,0.0,0.0,100,0.00,,,0.00,Rainwise IP-100,2013-09-22 04:01:00,
2013-09-22 00:06:00,60.0,60.0,27.63,SW,225,0.0,3.0,100,0.00,,,0.00,Rainwise IP-100,2013-09-22 04:06:00,
2013-09-22 00:11:00,61.0,61.0,27.63,SSW,202,0.0,3.0,100,0.00,,,0.00,Rainwise IP-100,2013-09-22 04:11:00,
2013-09-22 00:16:00,60.0,60.0,27.63,SSW,202,0.0,2.0,100,0.00,,,0.00,Rainwise IP-100,2013-09-22 04:16:00,
2013-09-22 00:21:00,60.0,60.0,27.64,SSW,202,1.0,3.0,100,0.00,,,0.00,Rainwise IP-100,2013-09-22 04:21:00,
2013-09-22 00:26:00,60.0,60.0,27.64,SSE,157,0.0,5.0,100,0.00,,,0.00,Rainwise IP-100,2013-09-22 04:26:00,
2013-09-22 00:31:00,60.0,60.0,27.63,SSW,202,0.0,3.0,100,0.00,,,0.00,Rainwise IP-100,2013-09-22 04:31:00,
2013-09-22 00:36:00,60.0,60.0,27.63,NW,315,1.0,4.0,100,0.00,,,0.00,Rainwise IP-100,2013-09-22 04:36:00,
2013-09-22 00:41:00,60.0,60.0,27.63,South,180,0.0,1.0,100,0.00,,,0.00,Rainwise IP-100,2013-09-22 04:41:00,
2013-09-22 00:46:00,60.0,60.0,27.63,South,180,1.0,5.0,100,0.00,,,0.00,Rainwise IP-100,2013-09-22 04:46:00,
2013-09-22 00:51:00,60.0,60.0,27.63,East,90,0.0,3.0,100,0.00,,,0.00,Rainwise IP-100,2013-09-22 04:51:00,
2013-09-22 00:56:00,60.0,60.0,27.63,SSW,202,0.0,5.0,100,0.00,,,0.00,Rainwise IP-100,2013-09-22 04:56:00,
2013-09-22 01:01:00,60.0,60.0,27.63,ESE,112,0.0,6.0,100,0.00,,,0.00,Rainwise IP-100,2013-09-22 05:01:00,
2013-09-22 01:06:00,60.0,60.0,27.63,South,180,1.0,7.0,100,0.00,,,0.00,Rainwise IP-100,2013-09-22 05:06:00,
2013-09-22 01:11:00,60.0,60.0,27.63,SE,135,1.0,5.0,100,0.00,,,0.00,Rainwise IP-100,2013-09-22 05:11:00,
2013-09-22 01:16:00,60.0,60.0,27.63,SW,225,1.0,4.0,100,0.00,,,0.00,Rainwise IP-100,2013-09-22 05:16:00,
2013-09-22 01:21:00,60.0,60.0,27.63,SSE,157,3.0,4.0,100,0.00,,,0.00,Rainwise IP-100,2013-09-22 05:21:00,
2013-09-22 01:26:00,60.0,60.0,27.63,SSE,157,1.0,5.0,100,0.00,,,0.00,Rainwise IP-100,2013-09-22 05:26:00,
2013-09-22 01:27:00,60.0,60.0,27.63,SE,135,0.0,5.0,100,0.00,,,0.00,Rainwise IP-100,2013-09-22 05:27:00,
2013-09-22 01:32:00,60.0,60.0,27.63,SSW,202,4.0,4.0,100,0.00,,,0.00,Rainwise IP-100,2013-09-22 05:32:00,
2013-09-22 01:37:00,60.0,60.0,27.63,WNW,292,1.0,9.0,100,0.00,,,0.00,Rainwise IP-100,2013-09-22 05:37:00,
2013-09-22 01:42:00,60.0,60.0,27.64,NW,315,0.0,7.0,100,0.00,,,0.00,Rainwise IP-100,2013-09-22 05:42:00,
2013-09-22 01:47:00,60.0,60.0,27.64,SSW,202,2.0,6.0,100,0.00,,,0.00,Rainwise IP-100,2013-09-22 05:47:00,
2013-09-22 01:52:00,59.0,59.0,27.64,SSE,157,2.0,3.0,100,0.00,,,0.00,Rainwise IP-100,2013-09-22 05:52:00,
2013-09-22 01:57:00,59.0,59.0,27.64,NNE,22,0.0,8.0,100,0.00,,,0.00,Rainwise IP-100,2013-09-22 05:57:00,
2013-09-22 02:02:00,59.0,59.0,27.64,WSW,247,0.0,9.0,100,0.00,,,0.00,Rainwise IP-100,2013-09-22 06:02:00,
2013-09-22 02:07:00,59.0,59.0,27.64,SSW,202,2.0,3.0,100,0.00,,,0.00,Rainwise IP-100,2013-09-22 06:07:00,
2013-09-22 02:12:00,59.0,59.0,27.65,SSW,202,2.0,4.0,100,0.00,,,0.00,Rainwise IP-100,2013-09-22 06:12:00,
2013-09-22 02:17:00,59.0,59.0,27.65,SSE,157,2.0,4.0,100,0.00,,,0.00,Rainwise IP-100,2013-09-22 06:17:00,
2013-09-22 02:22:00,59.0,59.0,27.65,SW,225,0.0,5.0,100,0.00,,,0.00,Rainwise IP-100,2013-09-22 06:22:00,
2013-09-22 02:27:00,59.0,59.0,27.65,SW,225,1.0,7.0,100,0.00,,,0.00,Rainwise IP-100,2013-09-22 06:27:00,
2013-09-22 02:32:00,59.0,59.0,27.65,North,360,0.0,4.0,100,0.00,,,0.00,Rainwise IP-100,2013-09-22 06:32:00,
2013-09-22 02:37:00,59.0,59.0,27.65,SSE,157,4.0,5.0,99,0.00,,,0.00,Rainwise IP-100,2013-09-22 06:37:00,
2013-09-22 02:42:00,59.0,59.0,27.64,SE,135,0.0,4.0,99,0.00,,,0.00,Rainwise IP-100,2013-09-22 06:42:00,
2013-09-22 02:47:00,59.0,59.0,27.64,SW,225,0.0,3.0,99,0.00,,,0.00,Rainwise IP-100,2013-09-22 06:47:00,
2013-09-22 02:52:00,59.0,59.0,27.65,SSE,157,1.0,3.0,100,0.00,,,0.00,Rainwise IP-100,2013-09-22 06:52:00,
2013-09-22 02:57:00,59.0,59.0,27.65,SE,135,0.0,3.0,99,0.00,,,0.00,Rainwise IP-100,2013-09-22 06:57:00,
2013-09-22 03:02:00,59.0,59.0,27.65,SSW,202,4.0,4.0,100,0.00,,,0.00,Rainwise IP-100,2013-09-22 07:02:00,
2013-09-22 03:07:00,59.0,59.0,27.65,ESE,112,2.0,5.0,100,0.00,,,0.00,Rainwise IP-100,2013-09-22 07:07:00,
2013-09-22 03:12:00,59.0,59.0,27.64,SW,225,1.0,6.0,99,0.00,,,0.00,Rainwise IP-100,2013-09-22 07:12:00,
2013-09-22 03:17:00,59.0,59.0,27.64,South,180,1.0,4.0,100,0.00,,,0.00,Rainwise IP-100,2013-09-22 07:17:00,
2013-09-22 03:22:00,59.0,59.0,27.65,WSW,247,2.0,5.0,100,0.00,,,0.00,Rainwise IP-100,2013-09-22 07:22:00,
2013-09-22 03:27:00,59.0,59.0,27.65,WSW,247,2.0,5.0,100,0.00,,,0.00,Rainwise IP-100,2013-09-22 07:27:00,
2013-09-22 03:32:00,59.0,59.0,27.65,SSW,202,0.0,3.0,100,0.00,,,0.00,Rainwise IP-100,2013-09-22 07:32:00,
2013-09-22 03:37:00,59.0,59.0,27.65,SW,225,0.0,6.0,100,0.00,,,0.00,Rainwise IP-100,2013-09-22 07:37:00,
2013-09-22 03:42:00,59.0,59.0,27.65,SSW,202,1.0,3.0,100,0.00,,,0.00,Rainwise IP-100,2013-09-22 07:42:00,
2013-09-22 03:47:00,58.0,57.0,27.65,South,180,0.0,3.0,98,0.00,,,0.00,Rainwise IP-100,2013-09-22 07:47:00,
2013-09-22 03:52:00,58.0,57.0,27.65,SSE,157,2.0,5.0,98,0.00,,,0.00,Rainwise IP-100,2013-09-22 07:52:00,
2013-09-22 03:57:00,58.0,57.0,27.65,WSW,247,0.0,6.0,97,0.00,,,0.00,Rainwise IP-100,2013-09-22 07:57:00,
2013-09-22 04:02:00,58.0,57.0,27.65,SE,135,3.0,4.0,98,0.00,,,0.00,Rainwise IP-100,2013-09-22 08:02:00,
2013-09-22 04:07:00,58.0,57.0,27.65,WNW,292,0.0,4.0,98,0.00,,,0.00,Rainwise IP-100,2013-09-22 08:07:00,
2013-09-22 04:12:00,58.0,57.0,27.65,SE,135,2.0,2.0,98,0.00,,,0.00,Rainwise IP-100,2013-09-22 08:12:00,
2013-09-22 04:17:00,58.0,57.0,27.65,SSE,157,0.0,3.0,98,0.00,,,0.00,Rainwise IP-100,2013-09-22 08:17:00,
2013-09-22 04:22:00,58.0,57.0,27.65,SSW,202,0.0,5.0,98,0.00,,,0.00,Rainwise IP-100,2013-09-22 08:22:00,
2013-09-22 04:27:00,58.0,57.0,27.65,SSE,157,3.0,4.0,97,0.00,,,0.00,Rainwise IP-100,2013-09-22 08:27:00,
2013-09-22 04:32:00,58.0,57.0,27.64,North,360,0.0,5.0,96,0.00,,,0.00,Rainwise IP-100,2013-09-22 08:32:00,
2013-09-22 04:37:00,57.0,56.0,27.64,SW,225,1.0,4.0,96,0.00,,,0.00,Rainwise IP-100,2013-09-22 08:37:00,
2013-09-22 04:42:00,57.0,56.0,27.65,West,270,1.0,3.0,96,0.00,,,0.00,Rainwise IP-100,2013-09-22 08:42:00,
2013-09-22 04:47:00,57.0,56.0,27.65,WNW,292,0.0,2.0,96,0.00,,,0.00,Rainwise IP-100,2013-09-22 08:47:00,
2013-09-22 04:52:00,57.0,56.0,27.65,West,270,0.0,4.0,96,0.00,,,0.00,Rainwise IP-100,2013-09-22 08:52:00,
2013-09-22 04:57:00,57.0,56.0,27.65,South,180,3.0,4.0,96,0.00,,,0.00,Rainwise IP-100,2013-09-22 08:57:00,
2013-09-22 05:02:00,57.0,56.0,27.66,SSE,157,0.0,4.0,96,0.00,,,0.00,Rainwise IP-100,2013-09-22 09:02:00,
2013-09-22 05:07:00,57.0,55.0,27.66,SE,135,0.0,4.0,94,0.00,,,0.00,Rainwise IP-100,2013-09-22 09:07:00,
2013-09-22 05:12:00,57.0,56.0,27.66,SE,135,0.0,2.0,95,0.00,,,0.00,Rainwise IP-100,2013-09-22 09:12:00,
2013-09-22 05:17:00,57.0,56.0,27.66,SSW,202,0.0,6.0,95,0.00,,,0.00,Rainwise IP-100,2013-09-22 09:17:00,
2013-09-22 05:22:00,57.0,56.0,27.66,WSW,247,2.0,3.0,95,0.00,,,0.00,Rainwise IP-100,2013-09-22 09:22:00,
2013-09-22 05:27:00,57.0,56.0,27.66,SSW,202,0.0,3.0,96,0.00,,,0.00,Rainwise IP-100,2013-09-22 09:27:00,
2013-09-22 05:32:00,56.0,55.0,27.67,ESE,112,0.0,2.0,97,0.00,,,0.00,Rainwise IP-100,2013-09-22 09:32:00,
2013-09-22 05:37:00,56.0,54.0,27.67,ESE,112,0.0,3.0,96,0.00,,,0.00,Rainwise IP-100,2013-09-22 09:37:00,
2013-09-22 05:42:00,56.0,54.0,27.67,WSW,247,0.0,0.0,96,0.00,,,0.00,Rainwise IP-100,2013-09-22 09:42:00,
2013-09-22 05:47:00,56.0,54.0,27.67,West,270,1.0,3.0,96,0.00,,,0.00,Rainwise IP-100,2013-09-22 09:47:00,
2013-09-22 05:52:00,56.0,54.0,27.66,East,90,0.0,4.0,95,0.00,,,0.00,Rainwise IP-100,2013-09-22 09:52:00,
2013-09-22 05:57:00,57.0,56.0,27.66,NNW,337,0.0,3.0,95,0.00,,,0.00,Rainwise IP-100,2013-09-22 09:57:00,
2013-09-22 06:02:00,57.0,55.0,27.67,SSW,202,1.0,3.0,94,0.00,,,0.00,Rainwise IP-100,2013-09-22 10:02:00,
2013-09-22 06:07:00,57.0,55.0,27.67,SSE,157,4.0,5.0,94,0.00,,,0.00,Rainwise IP-100,2013-09-22 10:07:00,
2013-09-22 06:12:00,56.0,54.0,27.67,SW,225,0.0,8.0,95,0.00,,,0.00,Rainwise IP-100,2013-09-22 10:12:00,
2013-09-22 06:17:00,56.0,54.0,27.67,East,90,1.0,3.0,94,0.00,,,0.00,Rainwise IP-100,2013-09-22 10:17:00,
2013-09-22 06:22:00,56.0,54.0,27.69,SSE,157,0.0,4.0,96,0.00,,,0.00,Rainwise IP-100,2013-09-22 10:22:00,
2013-09-22 06:27:00,56.0,54.0,27.69,SE,135,0.0,3.0,95,0.00,,,0.00,Rainwise IP-100,2013-09-22 10:27:00,
2013-09-22 06:32:00,56.0,54.0,27.68,SSE,157,0.0,3.0,95,0.00,,,0.00,Rainwise IP-100,2013-09-22 10:32:00,
2013-09-22 06:37:00,56.0,54.0,27.68,SSE,157,2.0,3.0,96,0.00,,,0.00,Rainwise IP-100,2013-09-22 10:37:00,
2013-09-22 06:42:00,56.0,54.0,27.69,SW,225,0.0,2.0,95,0.00,,,0.00,Rainwise IP-100,2013-09-22 10:42:00,
2013-09-22 06:47:00,56.0,54.0,27.69,NNE,22,1.0,3.0,95,0.00,,,0.00,Rainwise IP-100,2013-09-22 10:47:00,
2013-09-22 06:52:00,56.0,54.0,27.69,SE,135,0.0,3.0,96,0.00,,,0.00,Rainwise IP-100,2013-09-22 10:52:00,
2013-09-22 07:06:00,56.0,54.0,27.69,WNW,292,2.0,5.0,94,0.00,,,0.00,Rainwise IP-100,2013-09-22 11:06:00,
2013-09-22 07:11:00,56.0,54.0,27.69,SE,135,0.0,6.0,93,0.00,,,0.00,Rainwise IP-100,2013-09-22 11:11:00,
2013-09-22 07:16:00,56.0,54.0,27.69,SSW,202,0.0,3.0,94,0.00,,,0.00,Rainwise IP-100,2013-09-22 11:16:00,
2013-09-22 07:21:00,56.0,54.0,27.69,West,270,3.0,3.0,94,0.00,,,0.00,Rainwise IP-100,2013-09-22 11:21:00,
2013-09-22 07:26:00,56.0,54.0,27.69,WNW,292,3.0,4.0,93,0.00,,,0.00,Rainwise IP-100,2013-09-22 11:26:00,
2013-09-22 07:31:00,56.0,54.0,27.69,NNW,337,0.0,4.0,93,0.00,,,0.00,Rainwise IP-100,2013-09-22 11:31:00,
2013-09-22 07:36:00,56.0,54.0,27.69,ESE,112,1.0,2.0,94,0.00,,,0.00,Rainwise IP-100,2013-09-22 11:36:00,
2013-09-22 07:41:00,56.0,54.0,27.70,South,180,0.0,1.0,94,0.00,,,0.00,Rainwise IP-100,2013-09-22 11:41:00,
2013-09-22 07:46:00,55.0,54.0,27.70,ENE,67,0.0,8.0,95,0.00,,,0.00,Rainwise IP-100,2013-09-22 11:46:00,
2013-09-22 07:51:00,56.0,54.0,27.70,ENE,67,0.0,3.0,94,0.00,,,0.00,Rainwise IP-100,2013-09-22 11:51:00,
2013-09-22 07:56:00,56.0,54.0,27.70,ESE,112,0.0,3.0,94,0.00,,,0.00,Rainwise IP-100,2013-09-22 11:56:00,
2013-09-22 08:01:00,56.0,54.0,27.70,ENE,67,2.0,3.0,93,0.00,,,0.00,Rainwise IP-100,2013-09-22 12:01:00,
2013-09-22 08:06:00,56.0,54.0,27.70,SW,225,0.0,4.0,94,0.00,,,0.00,Rainwise IP-100,2013-09-22 12:06:00,
2013-09-22 08:11:00,56.0,54.0,27.70,SSW,202,0.0,5.0,93,0.00,,,0.00,Rainwise IP-100,2013-09-22 12:11:00,
2013-09-22 08:16:00,56.0,54.0,27.70,SW,225,2.0,2.0,93,0.00,,,0.00,Rainwise IP-100,2013-09-22 12:16:00,
2013-09-22 08:21:00,56.0,54.0,27.70,WNW,292,1.0,3.0,93,0.00,,,0.00,Rainwise IP-100,2013-09-22 12:21:00,
2013-09-22 08:26:00,56.0,54.0,27.70,WSW,247,0.0,4.0,93,0.00,,,0.00,Rainwise IP-100,2013-09-22 12:26:00,
2013-09-22 08:31:00,57.0,54.0,27.69,West,270,2.0,3.0,91,0.00,,,0.00,Rainwise IP-100,2013-09-22 12:31:00,
2013-09-22 08:36:00,57.0,54.0,27.69,WNW,292,0.0,4.0,91,0.00,,,0.00,Rainwise IP-100,2013-09-22 12:36:00,
2013-09-22 08:41:00,57.0,54.0,27.69,SE,135,0.0,5.0,91,0.00,,,0.00,Rainwise IP-100,2013-09-22 12:41:00,
2013-09-22 08:46:00,57.0,54.0,27.69,South,180,0.0,1.0,91,0.00,,,0.00,Rainwise IP-100,2013-09-22 12:46:00,
2013-09-22 08:51:00,57.0,54.0,27.70,SW,225,1.0,5.0,91,0.00,,,0.00,Rainwise IP-100,2013-09-22 12:51:00,
2013-09-22 08:56:00,57.0,54.0,27.70,SW,225,0.0,4.0,89,0.00,,,0.00,Rainwise IP-100,2013-09-22 12:56:00,
2013-09-22 09:01:00,58.0,54.0,27.70,WNW,292,3.0,3.0,88,0.00,,,0.00,Rainwise IP-100,2013-09-22 13:01:00,
2013-09-22 09:06:00,58.0,54.0,27.70,WNW,292,2.0,4.0,88,0.00,,,0.00,Rainwise IP-100,2013-09-22 13:06:00,
2013-09-22 09:11:00,58.0,54.0,27.71,West,270,0.0,4.0,86,0.00,,,0.00,Rainwise IP-100,2013-09-22 13:11:00,
2013-09-22 09:16:00,58.0,55.0,27.71,WNW,292,2.0,5.0,89,0.00,,,0.00,Rainwise IP-100,2013-09-22 13:16:00,
2013-09-22 09:21:00,58.0,54.0,27.70,NW,315,1.0,7.0,85,0.00,,,0.00,Rainwise IP-100,2013-09-22 13:21:00,
2013-09-22 09:26:00,59.0,54.0,27.70,NNW,337,0.0,7.0,86,0.00,,,0.00,Rainwise IP-100,2013-09-22 13:26:00,
2013-09-22 09:31:00,60.0,55.0,27.72,WNW,292,3.0,4.0,85,0.00,,,0.00,Rainwise IP-100,2013-09-22 13:31:00,
2013-09-22 09:36:00,60.0,55.0,27.72,SSE,157,0.0,11.0,84,0.00,,,0.00,Rainwise IP-100,2013-09-22 13:36:00,
2013-09-22 09:41:00,61.0,56.0,27.72,SSW,202,3.0,6.0,84,0.00,,,0.00,Rainwise IP-100,2013-09-22 13:41:00,
2013-09-22 09:46:00,62.0,56.0,27.72,East,90,2.0,3.0,83,0.00,,,0.00,Rainwise IP-100,2013-09-22 13:46:00,
2013-09-22 09:51:00,63.0,56.0,27.72,ENE,67,0.0,2.0,80,0.00,,,0.00,Rainwise IP-100,2013-09-22 13:51:00,
2013-09-22 09:56:00,64.0,55.0,27.72,West,270,0.0,7.0,74,0.00,,,0.00,Rainwise IP-100,2013-09-22 13:56:00,
2013-09-22 10:01:00,64.0,56.0,27.72,WNW,292,0.0,5.0,77,0.00,,,0.00,Rainwise IP-100,2013-09-22 14:01:00,
2013-09-22 10:06:00,64.0,58.0,27.72,WNW,292,0.0,2.0,81,0.00,,,0.00,Rainwise IP-100,2013-09-22 14:06:00,
2013-09-22 10:11:00,65.0,57.0,27.72,WNW,292,0.0,3.0,76,0.00,,,0.00,Rainwise IP-100,2013-09-22 14:11:00,
2013-09-22 10:16:00,66.0,56.0,27.72,WSW,247,0.0,3.0,70,0.00,,,0.00,Rainwise IP-100,2013-09-22 14:16:00,
2013-09-22 10:21:00,65.0,57.0,27.73,WNW,292,0.0,3.0,76,0.00,,,0.00,Rainwise IP-100,2013-09-22 14:21:00,
2013-09-22 10:26:00,67.0,56.0,27.73,WNW,292,1.0,0.0,67,0.00,,,0.00,Rainwise IP-100,2013-09-22 14:26:00,
2013-09-22 10:31:00,66.0,56.0,27.73,SE,135,2.0,3.0,72,0.00,,,0.00,Rainwise IP-100,2013-09-22 14:31:00,
2013-09-22 10:36:00,66.0,55.0,27.73,South,180,0.0,3.0,69,0.00,,,0.00,Rainwise IP-100,2013-09-22 14:36:00,
2013-09-22 10:41:00,67.0,55.0,27.73,SW,225,0.0,2.0,66,0.00,,,0.00,Rainwise IP-100,2013-09-22 14:41:00,
2013-09-22 10:46:00,67.0,56.0,27.72,WSW,247,0.0,4.0,67,0.00,,,0.00,Rainwise IP-100,2013-09-22 14:46:00,
2013-09-22 10:51:00,68.0,54.0,27.72,NE,45,0.0,2.0,61,0.00,,,0.00,Rainwise IP-100,2013-09-22 14:51:00,
2013-09-22 10:56:00,69.0,57.0,27.72,SE,135,0.0,1.0,66,0.00,,,0.00,Rainwise IP-100,2013-09-22 14:56:00,
2013-09-22 11:01:00,69.0,53.0,27.72,SSE,157,2.0,3.0,56,0.00,,,0.00,Rainwise IP-100,2013-09-22 15:01:00,
2013-09-22 11:06:00,69.0,55.0,27.72,North,360,0.0,4.0,62,0.00,,,0.00,Rainwise IP-100,2013-09-22 15:06:00,
2013-09-22 11:11:00,69.0,54.0,27.72,West,270,0.0,3.0,59,0.00,,,0.00,Rainwise IP-100,2013-09-22 15:11:00,
2013-09-22 11:16:00,68.0,54.0,27.72,NE,45,0.0,4.0,61,0.00,,,0.00,Rainwise IP-100,2013-09-22 15:16:00,
2013-09-22 11:21:00,69.0,54.0,27.72,WNW,292,0.0,3.0,60,0.00,,,0.00,Rainwise IP-100,2013-09-22 15:21:00,
2013-09-22 11:26:00,69.0,54.0,27.72,WNW,292,0.0,4.0,60,0.00,,,0.00,Rainwise IP-100,2013-09-22 15:26:00,
2013-09-22 11:31:00,70.0,51.0,27.71,SSE,157,2.0,4.0,51,0.00,,,0.00,Rainwise IP-100,2013-09-22 15:31:00,
2013-09-22 11:36:00,69.0,54.0,27.71,NNW,337,0.0,4.0,61,0.00,,,0.00,Rainwise IP-100,2013-09-22 15:36:00,
2013-09-22 11:41:00,70.0,51.0,27.72,West,270,0.0,2.0,52,0.00,,,0.00,Rainwise IP-100,2013-09-22 15:41:00,
2013-09-22 11:46:00,70.0,51.0,27.72,South,180,0.0,5.0,52,0.00,,,0.00,Rainwise IP-100,2013-09-22 15:46:00,
2013-09-22 11:51:00,69.0,54.0,27.72,South,180,0.0,6.0,59,0.00,,,0.00,Rainwise IP-100,2013-09-22 15:51:00,
2013-09-22 11:56:00,69.0,52.0,27.72,West,270,2.0,4.0,55,0.00,,,0.00,Rainwise IP-100,2013-09-22 15:56:00,
2013-09-22 12:01:00,70.0,54.0,27.71,ESE,112,1.0,3.0,57,0.00,,,0.00,Rainwise IP-100,2013-09-22 16:01:00,
2013-09-22 12:06:00,70.0,51.0,27.71,West,270,1.0,3.0,51,0.00,,,0.00,Rainwise IP-100,2013-09-22 16:06:00,
2013-09-22 12:11:00,71.0,53.0,27.71,ENE,67,0.0,6.0,52,0.00,,,0.00,Rainwise IP-100,2013-09-22 16:11:00,
2013-09-22 12:16:00,70.0,51.0,27.71,WNW,292,0.0,3.0,51,0.00,,,0.00,Rainwise IP-100,2013-09-22 16:16:00,
2013-09-22 12:21:00,71.0,53.0,27.71,SSW,202,0.0,4.0,53,0.00,,,0.00,Rainwise IP-100,2013-09-22 16:21:00,
2013-09-22 12:26:00,70.0,51.0,27.71,East,90,4.0,7.0,51,0.00,,,0.00,Rainwise IP-100,2013-09-22 16:26:00,
2013-09-22 12:31:00,69.0,50.0,27.71,South,180,1.0,7.0,50,0.00,,,0.00,Rainwise IP-100,2013-09-22 16:31:00,
2013-09-22 12:36:00,69.0,50.0,27.71,WNW,292,1.0,5.0,50,0.00,,,0.00,Rainwise IP-100,2013-09-22 16:36:00,
2013-09-22 12:41:00,70.0,53.0,27.71,South,180,0.0,5.0,55,0.00,,,0.00,Rainwise IP-100,2013-09-22 16:41:00,
2013-09-22 12:46:00,70.0,53.0,27.71,West,270,0.0,2.0,55,0.00,,,0.00,Rainwise IP-100,2013-09-22 16:46:00,
2013-09-22 12:51:00,71.0,52.0,27.70,West,270,0.0,2.0,51,0.00,,,0.00,Rainwise IP-100,2013-09-22 16:51:00,
2013-09-22 12:56:00,71.0,52.0,27.70,West,270,0.0,2.0,51,0.00,,,0.00,Rainwise IP-100,2013-09-22 16:56:00,
2013-09-22 13:01:00,71.0,52.0,27.70,WNW,292,1.0,3.0,51,0.00,,,0.00,Rainwise IP-100,2013-09-22 17:01:00,
2013-09-22 13:06:00,71.0,54.0,27.70,North,360,0.0,3.0,55,0.00,,,0.00,Rainwise IP-100,2013-09-22 17:06:00,
2013-09-22 13:11:00,72.0,54.0,27.70,NNW,337,0.0,3.0,53,0.00,,,0.00,Rainwise IP-100,2013-09-22 17:11:00,
2013-09-22 13:16:00,73.0,54.0,27.70,East,90,0.0,2.0,52,0.00,,,0.00,Rainwise IP-100,2013-09-22 17:16:00,
2013-09-22 13:21:00,73.0,54.0,27.69,South,180,2.0,3.0,53,0.00,,,0.00,Rainwise IP-100,2013-09-22 17:21:00,
2013-09-22 13:26:00,73.0,54.0,27.69,NNE,22,0.0,3.0,53,0.00,,,0.00,Rainwise IP-100,2013-09-22 17:26:00,
2013-09-22 13:31:00,74.0,54.0,27.68,SSE,157,0.0,2.0,49,0.00,,,0.00,Rainwise IP-100,2013-09-22 17:31:00,
2013-09-22 13:36:00,74.0,54.0,27.68,West,270,4.0,4.0,51,0.00,,,0.00,Rainwise IP-100,2013-09-22 17:36:00,
2013-09-22 13:41:00,71.0,53.0,27.70,WNW,292,0.0,4.0,52,0.00,,,0.00,Rainwise IP-100,2013-09-22 17:41:00,
2013-09-22 13:46:00,71.0,53.0,27.70,WNW,292,3.0,4.0,52,0.00,,,0.00,Rainwise IP-100,2013-09-22 17:46:00,
2013-09-22 13:51:00,70.0,52.0,27.69,WNW,292,0.0,4.0,53,0.00,,,0.00,Rainwise IP-100,2013-09-22 17:51:00,
2013-09-22 13:56:00,71.0,54.0,27.69,NNE,22,0.0,4.0,56,0.00,,,0.00,Rainwise IP-100,2013-09-22 17:56:00,
2013-09-22 14:01:00,71.0,52.0,27.69,WNW,292,3.0,3.0,51,0.00,,,0.00,Rainwise IP-100,2013-09-22 18:01:00,
2013-09-22 14:06:00,72.0,54.0,27.68,WSW,247,0.0,4.0,55,0.00,,,0.00,Rainwise IP-100,2013-09-22 18:06:00,
2013-09-22 14:11:00,72.0,53.0,27.68,WNW,292,0.0,4.0,50,0.00,,,0.00,Rainwise IP-100,2013-09-22 18:11:00,
2013-09-22 14:16:00,73.0,53.0,27.68,NW,315,2.0,3.0,50,0.00,,,0.00,Rainwise IP-100,2013-09-22 18:16:00,
2013-09-22 14:21:00,72.0,53.0,27.68,NW,315,2.0,4.0,50,0.00,,,0.00,Rainwise IP-100,2013-09-22 18:21:00,
2013-09-22 14:26:00,72.0,53.0,27.68,NW,315,2.0,5.0,50,0.00,,,0.00,Rainwise IP-100,2013-09-22 18:26:00,
2013-09-22 14:31:00,72.0,53.0,27.68,NW,315,1.0,5.0,50,0.00,,,0.00,Rainwise IP-100,2013-09-22 18:31:00,
2013-09-22 14:36:00,73.0,54.0,27.68,NW,315,1.0,4.0,53,0.00,,,0.00,Rainwise IP-100,2013-09-22 18:36:00,
2013-09-22 14:41:00,74.0,54.0,27.66,WNW,292,2.0,5.0,51,0.00,,,0.00,Rainwise IP-100,2013-09-22 18:41:00,
2013-09-22 14:46:00,72.0,53.0,27.66,WNW,292,4.0,5.0,50,0.00,,,0.00,Rainwise IP-100,2013-09-22 18:46:00,
2013-09-22 14:51:00,72.0,54.0,27.66,SSW,202,3.0,4.0,55,0.00,,,0.00,Rainwise IP-100,2013-09-22 18:51:00,
2013-09-22 14:56:00,72.0,54.0,27.68,WSW,247,0.0,4.0,54,0.00,,,0.00,Rainwise IP-100,2013-09-22 18:56:00,
2013-09-22 15:01:00,73.0,56.0,27.67,North,360,0.0,0.0,55,0.00,,,0.00,Rainwise IP-100,2013-09-22 19:01:00,
2013-09-22 15:06:00,75.0,57.0,27.67,North,360,0.0,0.0,53,0.00,,,0.00,Rainwise IP-100,2013-09-22 19:06:00,
2013-09-22 15:11:00,76.0,55.0,27.66,ESE,112,0.0,2.0,49,0.00,,,0.00,Rainwise IP-100,2013-09-22 19:11:00,
2013-09-22 15:16:00,76.0,55.0,27.66,SE,135,0.0,3.0,49,0.00,,,0.00,Rainwise IP-100,2013-09-22 19:16:00,
2013-09-22 15:21:00,77.0,54.0,27.65,NE,45,0.0,0.0,45,0.00,,,0.00,Rainwise IP-100,2013-09-22 19:21:00,
2013-09-22 15:26:00,77.0,54.0,27.65,WSW,247,0.0,0.0,45,0.00,,,0.00,Rainwise IP-100,2013-09-22 19:26:00,
2013-09-22 15:31:00,75.0,53.0,27.67,West,270,0.0,3.0,45,0.00,,,0.00,Rainwise IP-100,2013-09-22 19:31:00,
2013-09-22 15:36:00,76.0,54.0,27.67,West,270,1.0,3.0,48,0.00,,,0.00,Rainwise IP-100,2013-09-22 19:36:00,
2013-09-22 15:41:00,74.0,53.0,27.67,WNW,292,3.0,4.0,48,0.00,,,0.00,Rainwise IP-100,2013-09-22 19:41:00,
2013-09-22 15:46:00,75.0,53.0,27.67,SSE,157,0.0,4.0,47,0.00,,,0.00,Rainwise IP-100,2013-09-22 19:46:00,
2013-09-22 15:51:00,76.0,55.0,27.66,WNW,292,0.0,3.0,49,0.00,,,0.00,Rainwise IP-100,2013-09-22 19:51:00,
2013-09-22 15:56:00,77.0,54.0,27.66,NNW,337,0.0,0.0,46,0.00,,,0.00,Rainwise IP-100,2013-09-22 19:56:00,
2013-09-22 16:01:00,77.0,53.0,27.66,WSW,247,2.0,3.0,44,0.00,,,0.00,Rainwise IP-100,2013-09-22 20:01:00,
2013-09-22 16:06:00,75.0,53.0,27.66,ESE,112,0.0,4.0,46,0.00,,,0.00,Rainwise IP-100,2013-09-22 20:06:00,
2013-09-22 16:11:00,76.0,52.0,27.67,WNW,292,0.0,2.0,43,0.00,,,0.00,Rainwise IP-100,2013-09-22 20:11:00,
2013-09-22 16:16:00,76.0,53.0,27.67,SSE,157,0.0,3.0,46,0.00,,,0.00,Rainwise IP-100,2013-09-22 20:16:00,
2013-09-22 16:21:00,77.0,53.0,27.66,South,180,0.0,0.0,44,0.00,,,0.00,Rainwise IP-100,2013-09-22 20:21:00,
2013-09-22 16:26:00,76.0,53.0,27.66,WSW,247,0.0,4.0,44,0.00,,,0.00,Rainwise IP-100,2013-09-22 20:26:00,
2013-09-22 16:31:00,76.0,53.0,27.67,North,360,0.0,2.0,45,0.00,,,0.00,Rainwise IP-100,2013-09-22 20:31:00,
2013-09-22 16:36:00,77.0,53.0,27.67,South,180,0.0,0.0,43,0.00,,,0.00,Rainwise IP-100,2013-09-22 20:36:00,
2013-09-22 16:41:00,77.0,53.0,27.66,East,90,0.0,4.0,43,0.00,,,0.00,Rainwise IP-100,2013-09-22 20:41:00,
2013-09-22 16:46:00,75.0,53.0,27.66,ENE,67,2.0,4.0,45,0.00,,,0.00,Rainwise IP-100,2013-09-22 20:46:00,
2013-09-22 16:51:00,74.0,53.0,27.67,South,180,0.0,3.0,47,0.00,,,0.00,Rainwise IP-100,2013-09-22 20:51:00,
2013-09-22 16:56:00,73.0,54.0,27.67,SE,135,0.0,3.0,51,0.00,,,0.00,Rainwise IP-100,2013-09-22 20:56:00,
2013-09-22 17:01:00,73.0,55.0,27.68,SE,135,0.0,0.0,54,0.00,,,0.00,Rainwise IP-100,2013-09-22 21:01:00,
2013-09-22 17:06:00,72.0,54.0,27.68,SE,135,0.0,3.0,53,0.00,,,0.00,Rainwise IP-100,2013-09-22 21:06:00,
2013-09-22 17:11:00,72.0,54.0,27.67,NNE,22,0.0,1.0,53,0.00,,,0.00,Rainwise IP-100,2013-09-22 21:11:00,
2013-09-22 17:16:00,71.0,54.0,27.67,WSW,247,0.0,3.0,55,0.00,,,0.00,Rainwise IP-100,2013-09-22 21:16:00,
2013-09-22 17:21:00,70.0,54.0,27.68,WSW,247,0.0,0.0,58,0.00,,,0.00,Rainwise IP-100,2013-09-22 21:21:00,
2013-09-22 17:26:00,70.0,55.0,27.68,WSW,247,0.0,0.0,60,0.00,,,0.00,Rainwise IP-100,2013-09-22 21:26:00,
2013-09-22 17:31:00,69.0,53.0,27.68,NNE,22,1.0,3.0,58,0.00,,,0.00,Rainwise IP-100,2013-09-22 21:31:00,
2013-09-22 17:36:00,69.0,54.0,27.68,NNE,22,0.0,3.0,60,0.00,,,0.00,Rainwise IP-100,2013-09-22 21:36:00,
2013-09-22 17:41:00,69.0,54.0,27.68,SW,225,0.0,3.0,59,0.00,,,0.00,Rainwise IP-100,2013-09-22 21:41:00,
2013-09-22 17:46:00,68.0,53.0,27.68,SE,135,0.0,3.0,60,0.00,,,0.00,Rainwise IP-100,2013-09-22 21:46:00,
2013-09-22 17:51:00,68.0,53.0,27.68,SSE,157,0.0,0.0,59,0.00,,,0.00,Rainwise IP-100,2013-09-22 21:51:00,
2013-09-22 17:56:00,68.0,53.0,27.68,ESE,112,0.0,5.0,60,0.00,,,0.00,Rainwise IP-100,2013-09-22 21:56:00,
2013-09-22 18:01:00,68.0,54.0,27.68,East,90,0.0,4.0,61,0.00,,,0.00,Rainwise IP-100,2013-09-22 22:01:00,
2013-09-22 18:06:00,67.0,54.0,27.68,East,90,0.0,3.0,62,0.00,,,0.00,Rainwise IP-100,2013-09-22 22:06:00,
2013-09-22 18:11:00,67.0,54.0,27.68,ENE,67,0.0,0.0,63,0.00,,,0.00,Rainwise IP-100,2013-09-22 22:11:00,
2013-09-22 18:16:00,67.0,54.0,27.68,ENE,67,0.0,0.0,64,0.00,,,0.00,Rainwise IP-100,2013-09-22 22:16:00,
2013-09-22 18:21:00,66.0,53.0,27.70,South,180,0.0,4.0,64,0.00,,,0.00,Rainwise IP-100,2013-09-22 22:21:00,
2013-09-22 18:26:00,66.0,54.0,27.70,East,90,0.0,4.0,65,0.00,,,0.00,Rainwise IP-100,2013-09-22 22:26:00,
2013-09-22 18:31:00,66.0,54.0,27.70,East,90,0.0,4.0,65,0.00,,,0.00,Rainwise IP-100,2013-09-22 22:31:00,
2013-09-22 18:36:00,66.0,54.0,27.70,West,270,0.0,3.0,67,0.00,,,0.00,Rainwise IP-100,2013-09-22 22:36:00,
2013-09-22 18:41:00,66.0,54.0,27.70,WSW,247,0.0,3.0,67,0.00,,,0.00,Rainwise IP-100,2013-09-22 22:41:00,
2013-09-22 18:46:00,65.0,54.0,27.70,ESE,112,1.0,1.0,67,0.00,,,0.00,Rainwise IP-100,2013-09-22 22:46:00,
2013-09-22 18:51:00,65.0,54.0,27.70,ENE,67,0.0,3.0,67,0.00,,,0.00,Rainwise IP-100,2013-09-22 22:51:00,
2013-09-22 18:56:00,65.0,54.0,27.70,SE,135,0.0,2.0,70,0.00,,,0.00,Rainwise IP-100,2013-09-22 22:56:00,
2013-09-22 19:01:00,64.0,54.0,27.70,West,270,0.0,3.0,72,0.00,,,0.00,Rainwise IP-100,2013-09-22 23:01:00,
2013-09-22 19:06:00,64.0,54.0,27.70,ESE,112,0.0,3.0,72,0.00,,,0.00,Rainwise IP-100,2013-09-22 23:06:00,
2013-09-22 19:11:00,64.0,54.0,27.70,ENE,67,0.0,3.0,72,0.00,,,0.00,Rainwise IP-100,2013-09-22 23:11:00,
2013-09-22 19:16:00,63.0,54.0,27.70,SSW,202,0.0,3.0,72,0.00,,,0.00,Rainwise IP-100,2013-09-22 23:16:00,
2013-09-22 19:21:00,63.0,54.0,27.70,SSW,202,0.0,0.0,72,0.00,,,0.00,Rainwise IP-100,2013-09-22 23:21:00,
2013-09-22 19:26:00,63.0,54.0,27.70,NNW,337,1.0,2.0,74,0.00,,,0.00,Rainwise IP-100,2013-09-22 23:26:00,
2013-09-22 19:31:00,63.0,54.0,27.71,NNW,337,0.0,3.0,73,0.00,,,0.00,Rainwise IP-100,2013-09-22 23:31:00,
2013-09-22 19:36:00,62.0,54.0,27.71,NNW,337,0.0,0.0,75,0.00,,,0.00,Rainwise IP-100,2013-09-22 23:36:00,
2013-09-22 19:41:00,62.0,53.0,27.72,WNW,292,0.0,3.0,74,0.00,,,0.00,Rainwise IP-100,2013-09-22 23:41:00,
2013-09-22 19:46:00,62.0,54.0,27.72,WNW,292,0.0,0.0,76,0.00,,,0.00,Rainwise IP-100,2013-09-22 23:46:00,
2013-09-22 19:51:00,62.0,54.0,27.71,WSW,247,0.0,1.0,75,0.00,,,0.00,Rainwise IP-100,2013-09-22 23:51:00,
2013-09-22 19:56:00,61.0,54.0,27.71,South,180,0.0,0.0,77,0.00,,,0.00,Rainwise IP-100,2013-09-22 23:56:00,
2013-09-22 20:01:00,61.0,54.0,27.72,SE,135,1.0,0.0,79,0.00,,,0.00,Rainwise IP-100,2013-09-23 00:01:00,
2013-09-22 20:06:00,60.0,54.0,27.72,NNW,337,0.0,3.0,80,0.00,,,0.00,Rainwise IP-100,2013-09-23 00:06:00,
2013-09-22 20:11:00,60.0,53.0,27.73,NNW,337,0.0,0.0,79,0.00,,,0.00,Rainwise IP-100,2013-09-23 00:11:00,
2013-09-22 20:16:00,59.0,53.0,27.73,NNW,337,0.0,0.0,82,0.00,,,0.00,Rainwise IP-100,2013-09-23 00:16:00,
2013-09-22 20:21:00,59.0,54.0,27.74,NNW,337,0.0,0.0,84,0.00,,,0.00,Rainwise IP-100,2013-09-23 00:21:00,
2013-09-22 20:26:00,58.0,53.0,27.74,NNW,337,0.0,0.0,84,0.00,,,0.00,Rainwise IP-100,2013-09-23 00:26:00,
2013-09-22 20:31:00,58.0,54.0,27.74,NNW,337,0.0,0.0,87,0.00,,,0.00,Rainwise IP-100,2013-09-23 00:31:00,
2013-09-22 20:36:00,57.0,53.0,27.74,NNW,337,0.0,0.0,88,0.00,,,0.00,Rainwise IP-100,2013-09-23 00:36:00,
2013-09-22 20:41:00,57.0,54.0,27.74,North,360,0.0,3.0,90,0.00,,,0.00,Rainwise IP-100,2013-09-23 00:41:00,
2013-09-22 20:46:00,57.0,54.0,27.74,North,360,0.0,2.0,90,0.00,,,0.00,Rainwise IP-100,2013-09-23 00:46:00,
2013-09-22 20:51:00,57.0,54.0,27.74,North,360,0.0,1.0,91,0.00,,,0.00,Rainwise IP-100,2013-09-23 00:51:00,
2013-09-22 20:56:00,57.0,54.0,27.74,North,360,0.0,0.0,91,0.00,,,0.00,Rainwise IP-100,2013-09-23 00:56:00,
2013-09-22 21:01:00,57.0,54.0,27.75,SSE,157,1.0,3.0,90,0.00,,,0.00,Rainwise IP-100,2013-09-23 01:01:00,
2013-09-22 21:06:00,57.0,55.0,27.75,SE,135,0.0,3.0,93,0.00,,,0.00,Rainwise IP-100,2013-09-23 01:06:00,
2013-09-22 21:11:00,57.0,55.0,27.75,SE,135,0.0,0.0,93,0.00,,,0.00,Rainwise IP-100,2013-09-23 01:11:00,
2013-09-22 21:16:00,57.0,55.0,27.75,SE,135,0.0,0.0,93,0.00,,,0.00,Rainwise IP-100,2013-09-23 01:16:00,
2013-09-22 21:21:00,56.0,54.0,27.77,SE,135,0.0,0.0,93,0.00,,,0.00,Rainwise IP-100,2013-09-23 01:21:00,
2013-09-22 21:26:00,56.0,54.0,27.77,SE,135,0.0,0.0,93,0.00,,,0.00,Rainwise IP-100,2013-09-23 01:26:00,
2013-09-22 21:31:00,56.0,54.0,27.76,SE,135,0.0,0.0,93,0.00,,,0.00,Rainwise IP-100,2013-09-23 01:31:00,
2013-09-22 21:36:00,55.0,53.0,27.76,SE,135,0.0,0.0,94,0.00,,,0.00,Rainwise IP-100,2013-09-23 01:36:00,
2013-09-22 21:41:00,55.0,53.0,27.78,SE,135,0.0,0.0,94,0.00,,,0.00,Rainwise IP-100,2013-09-23 01:41:00,
2013-09-22 21:46:00,55.0,54.0,27.78,SE,135,0.0,0.0,95,0.00,,,0.00,Rainwise IP-100,2013-09-23 01:46:00,
2013-09-22 21:51:00,55.0,54.0,27.78,SE,135,0.0,0.0,96,0.00,,,0.00,Rainwise IP-100,2013-09-23 01:51:00,
2013-09-22 21:56:00,55.0,54.0,27.78,SE,135,0.0,0.0,96,0.00,,,0.00,Rainwise IP-100,2013-09-23 01:56:00,
2013-09-22 22:01:00,55.0,54.0,27.78,SE,135,0.0,0.0,96,0.00,,,0.00,Rainwise IP-100,2013-09-23 02:01:00,
2013-09-22 22:06:00,55.0,54.0,27.78,SE,135,0.0,0.0,97,0.00,,,0.00,Rainwise IP-100,2013-09-23 02:06:00,
2013-09-22 22:11:00,54.0,53.0,27.78,SE,135,0.0,0.0,97,0.00,,,0.00,Rainwise IP-100,2013-09-23 02:11:00,
2013-09-22 22:16:00,54.0,53.0,27.78,SE,135,0.0,0.0,98,0.00,,,0.00,Rainwise IP-100,2013-09-23 02:16:00,
2013-09-22 22:21:00,55.0,54.0,27.78,SE,135,0.0,0.0,98,0.00,,,0.00,Rainwise IP-100,2013-09-23 02:21:00,
2013-09-22 22:26:00,54.0,53.0,27.78,SE,135,0.0,0.0,98,0.00,,,0.00,Rainwise IP-100,2013-09-23 02:26:00,
2013-09-22 22:31:00,55.0,54.0,27.78,SE,135,0.0,0.0,98,0.00,,,0.00,Rainwise IP-100,2013-09-23 02:31:00,
2013-09-22 22:36:00,54.0,53.0,27.78,SE,135,0.0,0.0,98,0.00,,,0.00,Rainwise IP-100,2013-09-23 02:36:00,
2013-09-22 22:41:00,54.0,54.0,27.78,SE,135,0.0,0.0,99,0.00,,,0.00,Rainwise IP-100,2013-09-23 02:41:00,
2013-09-22 22:46:00,54.0,54.0,27.78,SE,135,0.0,0.0,99,0.00,,,0.00,Rainwise IP-100,2013-09-23 02:46:00,
2013-09-22 22:51:00,54.0,54.0,27.78,SE,135,0.0,0.0,99,0.00,,,0.00,Rainwise IP-100,2013-09-23 02:51:00,
2013-09-22 22:56:00,54.0,54.0,27.79,SE,135,0.0,0.0,99,0.00,,,0.00,Rainwise IP-100,2013-09-23 02:56:00,
2013-09-22 23:01:00,54.0,54.0,27.79,SE,135,0.0,0.0,99,0.00,,,0.00,Rainwise IP-100,2013-09-23 03:01:00,
2013-09-22 23:06:00,54.0,54.0,27.79,SE,135,0.0,0.0,99,0.00,,,0.00,Rainwise IP-100,2013-09-23 03:06:00,
2013-09-22 23:11:00,54.0,54.0,27.79,SE,135,0.0,0.0,99,0.00,,,0.00,Rainwise IP-100,2013-09-23 03:11:00,
2013-09-22 23:16:00,54.0,54.0,27.79,SE,135,0.0,0.0,99,0.00,,,0.00,Rainwise IP-100,2013-09-23 03:16:00,
2013-09-22 23:21:00,54.0,54.0,27.79,SE,135,0.0,0.0,99,0.00,,,0.00,Rainwise IP-100,2013-09-23 03:21:00,
2013-09-22 23:26:00,54.0,54.0,27.79,SE,135,0.0,0.0,100,0.00,,,0.00,Rainwise IP-100,2013-09-23 03:26:00,
2013-09-22 23:31:00,54.0,54.0,27.79,SE,135,0.0,0.0,100,0.00,,,0.00,Rainwise IP-100,2013-09-23 03:31:00,
2013-09-22 23:36:00,54.0,54.0,27.79,SE,135,0.0,0.0,100,0.00,,,0.00,Rainwise IP-100,2013-09-23 03:36:00,
2013-09-22 23:41:00,54.0,54.0,27.79,SE,135,0.0,0.0,100,0.00,,,0.00,Rainwise IP-100,2013-09-23 03:41:00,
2013-09-22 23:46:00,54.0,54.0,27.79,SE,135,0.0,0.0,100,0.00,,,0.00,Rainwise IP-100,2013-09-23 03:46:00,
2013-09-22 23:51:00,54.0,54.0,27.79,SE,135,0.0,0.0,100,0.00,,,0.00,Rainwise IP-100,2013-09-23 03:51:00,
2013-09-22 23:56:00,54.0,54.0,27.79,SE,135,0.0,0.0,100,0.00,,,0.00,Rainwise IP-100,2013-09-23 03:56:00,